Douglas, WY

9:47 AM MST on February 27, 2017 (GMT -0700)
Converse County

Weather History for KDGW - April, 2014

Change the Weather History Date:

Friday, April 11, 2014

  Actual Average Record
Temperature  
Mean Temperature 50 °F 42 °F  
Max Temperature 70 °F 56 °F 74 °F (2003)
Min Temperature 29 °F 29 °F 6 °F (2013)
Degree Days  
Heating Degree Days 15 23  
Month to date heating degree days 240 262  
Since 1 July heating degree days 6722 6580  
Cooling Degree Days 0 0  
Month to date cooling degree days 0 0  
Year to date cooling degree days 0 0  
Moisture  
Dew Point 29 °F    
Average Humidity 56    
Maximum Humidity 92    
Minimum Humidity 20    
Precipitation  
Precipitation 0.00 in 0.05 in 0.22 in (1983)
Month to date precipitation 0.04 0.39  
Year to date precipitation 2.28 2.03  
Sea Level Pressure  
Sea Level Pressure 29.84 in    
Wind  
Wind Speed 8 mph (West)    
Max Wind Speed 30 mph    
Max Gust Speed 43 mph    
Visibility 10 miles    
Events      
T = Trace of Precipitation, MM = Missing Value Source: NWS Daily Summary

Daily Weather History Graph

Daily Weather History Graph

Search for Another Location

Airport or City:

Trip Planner

Search our weather history database for the weather conditions in past years. The results will help you decide how hot, cold, wet, or windy it might be!

Date:

Astronomy

Apr. 11, 2014 Rise Set
Actual Time 6:26 AM MDT 7:39 PM MDT
Civil Twilight 5:57 AM MDT 8:08 PM MDT
Nautical Twilight 5:22 AM MDT 8:43 PM MDT
Astronomical Twilight 4:45 AM MDT 9:20 PM MDT
Moon 4:17 PM MDT (4/11) 4:28 AM MDT (4/11)
Length of Visible Light 14h 11m
Length of Day
13h 12m
Waxing Gibbous, 87% of the Moon is Illuminated
Apr 11
Waxing Gibbous
Apr 15
Full
Apr 22
Last Quarter
Apr 29
New
May 6
First Quarter

Hourly Weather History & Observations

Time (MDT) Temp. Windchill Dew Point Humidity Pressure Visibility Wind Dir Wind Speed Gust Speed Precip Events Conditions
12:53 AM 37.9 °F 35.5 °F 34.0 °F 86% 30.00 in 10.0 mi SE 3.5 mph - N/A   Clear
1:53 AM 34.0 °F - 30.0 °F 85% 30.01 in 10.0 mi Calm Calm - N/A   Clear
2:53 AM 33.1 °F - 30.0 °F 89% 30.01 in 10.0 mi Calm Calm - N/A   Clear
3:53 AM 30.9 °F - 28.9 °F 92% 29.99 in 10.0 mi Calm Calm - N/A   Clear
4:53 AM 30.9 °F - 28.0 °F 89% 29.99 in 10.0 mi Calm Calm - N/A   Clear
5:53 AM 30.9 °F 27.5 °F 28.9 °F 92% 29.99 in 10.0 mi North 3.5 mph - N/A   Clear
6:53 AM 30.0 °F 24.1 °F 28.0 °F 92% 30.01 in 10.0 mi ESE 5.8 mph - N/A   Clear
7:53 AM 36.0 °F 33.3 °F 33.1 °F 89% 30.01 in 10.0 mi WNW 3.5 mph - N/A   Clear
8:53 AM 41.0 °F - 34.0 °F 76% 29.99 in 10.0 mi Calm Calm - N/A   Clear
9:53 AM 46.9 °F - 34.0 °F 61% 29.96 in 10.0 mi SSE 3.5 mph - N/A   Clear
10:53 AM 55.0 °F - 33.1 °F 43% 29.90 in 10.0 mi South 8.1 mph - N/A   Clear
11:53 AM 61.0 °F - 28.0 °F 29% 29.84 in 10.0 mi WSW 15.0 mph 23.0 mph N/A   Clear
12:53 PM 63.0 °F - 25.0 °F 24% 29.79 in 10.0 mi West 16.1 mph - N/A   Clear
1:53 PM 66.0 °F - 26.1 °F 22% 29.75 in 10.0 mi WSW 21.9 mph 31.1 mph N/A   Clear
2:53 PM 68.0 °F - 26.1 °F 21% 29.73 in 10.0 mi West 23.0 mph 31.1 mph N/A   Clear
3:53 PM 68.0 °F - 26.1 °F 21% 29.70 in 10.0 mi WNW 24.2 mph 33.4 mph N/A   Clear
4:53 PM 69.1 °F - 27.0 °F 21% 29.67 in 10.0 mi WNW 20.7 mph 29.9 mph N/A   Clear
5:53 PM 69.1 °F - 27.0 °F 21% 29.65 in 10.0 mi WNW 20.7 mph 25.3 mph N/A   Clear
6:53 PM 61.0 °F - 28.9 °F 30% 29.68 in 10.0 mi West 8.1 mph - N/A   Clear
7:53 PM 57.0 °F - 28.9 °F 34% 29.68 in 10.0 mi WNW 5.8 mph - N/A   Clear
8:53 PM 55.9 °F - 28.0 °F 34% 29.70 in 10.0 mi NNE 4.6 mph - N/A   Clear
9:53 PM 48.0 °F - 30.9 °F 52% 29.71 in 10.0 mi South 4.6 mph - N/A   Clear
10:53 PM 45.0 °F 43.5 °F 30.0 °F 56% 29.69 in 10.0 mi North 3.5 mph - N/A   Clear
11:53 PM 43.0 °F 41.3 °F 30.0 °F 60% 29.68 in 10.0 mi Variable 3.5 mph - N/A   Clear